Location: Central Coast
(33.3208°S, 151.2336°E)
Time: 03:37:06
(UTC+11:00)

Vanguard 1 - Visible Passes

Search period start: 23 February 2018 00:00
Search period end: 05 March 2018 00:00
Orbit: 650 x 3833 km, 34.2° (Epoch: 21 February)

Date Brightness Start Highest point End Pass type
(mag) Time Alt. Az. Time Alt. Az. Time Alt. Az.
23 Feb 13.1 01:05:10 15° E 01:05:10 15° E 01:07:28 10° E visible
23 Feb 11.3 03:17:53 72° N 03:18:44 75° NNE 03:36:24 10° ESE visible
23 Feb 12.4 05:30:35 13° W 05:43:09 87° S 06:05:55 10° E visible
24 Feb 12.8 01:24:56 22° E 01:24:56 22° E 01:29:47 10° E visible
24 Feb 11.3 03:37:39 65° WNW 03:39:56 84° NNE 03:58:22 10° E visible
24 Feb 12.5 05:51:00 10° W 06:04:50 88° S 06:27:56 10° E visible
25 Feb 12.5 01:44:43 30° E 01:44:43 30° E 01:51:47 10° ESE visible
25 Feb 11.5 03:57:25 52° W 04:01:17 90° N 04:20:23 10° E visible
25 Feb 12.6 06:12:09 10° W 06:26:30 88° NNW 06:49:51 10° ENE visible
26 Feb 12.1 02:04:31 40° E 02:04:31 40° E 02:13:38 10° ESE visible
26 Feb 11.7 04:17:13 40° W 04:22:44 87° S 04:42:27 10° E visible
27 Feb 11.8 02:24:19 52° E 02:24:19 52° E 02:35:28 10° ESE visible
27 Feb 11.9 04:37:02 30° W 04:44:14 86° S 05:04:32 10° E visible
28 Feb 11.4 02:44:09 66° E 02:44:09 66° E 02:57:19 10° E visible
28 Feb 12.0 04:56:53 22° W 05:05:45 89° S 05:26:35 10° E visible
01 Mar 13.2 00:51:18 11° E 00:51:18 11° E 00:51:51 10° ESE visible
01 Mar 11.2 03:04:01 82° ESE 03:04:01 82° ESE 03:19:14 10° E visible
01 Mar 12.1 05:16:44 16° W 05:27:15 87° NNW 05:48:32 10° ENE visible
02 Mar 13.0 01:11:12 17° E 01:11:12 17° E 01:13:34 10° ESE visible
02 Mar 11.1 03:23:55 80° WSW 03:24:43 86° S 03:41:13 10° E visible
02 Mar 12.2 05:36:39 11° WSW 05:48:43 80° NNW 06:10:18 10° ENE visible
03 Mar 12.7 01:31:08 22° E 01:31:08 22° E 01:35:15 10° ESE visible
03 Mar 11.2 03:43:52 64° WSW 03:46:04 86° S 04:03:14 10° E visible
03 Mar 12.3 05:57:35 10° WSW 06:10:09 72° NNW 06:31:50 10° ENE visible
04 Mar 12.4 01:51:07 29° E 01:51:07 29° E 01:56:57 10° E visible
04 Mar 11.4 04:03:51 51° W 04:07:25 89° S 04:25:14 10° E visible
04 Mar 12.5 06:18:42 10° WSW 06:31:33 63° NNW 06:53:04 10° NE visible
